Location: Newark
(49.9828°N, 3.1606°E)
Time: 17:00:25
(UTC+00:00)

Envisat - Pass Details

Date: 25 January 2020
Orbit: 764 x 766 km, 98.1° (Epoch: 17 February)

Event Time Altitude Azimuth Distance (km) Brightness Sun altitude
Rises 06:09:42 0° 18° (NNE) 3,245 6.3 -12.9°
Reaches altitude 10° 06:12:06 10° 24° (NNE) 2,314 5.6 -12.5°
Maximum altitude 06:17:02 49° 99° (E) 985 4.1 -11.8°
Drops below altitude 10° 06:21:56 10° 174° (S) 2,296 5.8 -11.0°
Sets 06:24:18 0° 180° (S) 3,217 6.5 -10.6°
